DM5RC Weather Reports


Display with metric or nautical units.
time (UTC)temp
F
wind
direction
speed
MPH
gust
MPH
rain 1hr
in
rain 24hr
in
rain mn
in
humidity
%
barometer
mb
20260504141313 77 205 4.0 15.0 0.00 0.00 0.00 42 1010.8
20260504140816 77 252 6.0 15.0 0.00 0.00 0.00 42 1010.9
20260504140319 77 263 5.0 13.0 0.00 0.00 0.00 45 1010.9
20260504130820 77 250 3.0 8.0 0.00 0.00 0.00 46 1011.2
20260504130323 77 250 1.0 9.0 0.00 0.00 0.00 47 1011.2
20260504110327 74 204 2.0 11.0 0.00 0.00 0.00 52 1012.1
20260504100322 70 274 4.0 9.0 0.00 0.00 0.00 54 1012.7
20260504081818 68 338 4.0 12.0 0.00 0.00 0.00 56 1013.0
20260504081319 68 275 6.0 12.0 0.00 0.00 0.00 56 1012.9
20260504080821 69 281 6.0 11.0 0.00 0.00 0.00 55 1012.8
20260504080324 69 224 5.0 11.0 0.00 0.00 0.00 55 1012.8
20260504070327 67 288 2.0 5.0 0.00 0.00 0.00 58 1012.5
20260504050324 62 250 1.0 3.0 0.00 0.00 0.00 64 1011.7
20260504045847 61 223 1.0 4.0 0.00 0.00 0.00 64 1011.7
20260504045329 61 231 1.0 4.0 0.00 0.00 0.00 65 1011.7
20260504044913 61 246 2.0 4.0 0.00 0.00 0.00 65 1011.7
20260504044312 60 254 2.0 3.0 0.00 0.00 0.00 67 1011.7
20260504043835 60 267 1.0 1.0 0.00 0.00 0.00 67 1011.5
20260504043405 60 268 0.0 1.0 0.00 0.00 0.00 67 1011.4
20260504042844 60 268 0.0 1.0 0.00 0.00 0.00 67 1011.4
20260504042326 60 268 0.0 1.0 0.00 0.00 0.00 67 1011.4
20260504041828 60 268 0.0 1.0 0.00 0.00 0.00 66 1011.4
20260504041329 60 268 0.0 1.0 0.00 0.00 0.00 66 1011.4
20260504040812 60 268 0.0 1.0 0.00 0.00 0.00 66 1011.3
20260504040313 60 268 1.0 1.0 0.00 0.00 0.00 65 1011.3
20260504035814 60 268 0.0 1.0 0.00 0.00 0.00 65 1011.4
20260504035334 60 268 0.0 1.0 0.00 0.00 0.00 65 1011.4
20260504034814 60 267 0.0 1.0 0.00 0.00 0.00 65 1011.4
20260504034318 60 267 1.0 1.0 0.00 0.00 0.00 64 1011.4
20260504033821 61 268 0.0 0.0 0.00 0.00 0.00 64 1011.3
20260504033325 61 267 0.0 0.0 0.00 0.00 0.00 63 1011.3
20260504032823 60 268 0.0 1.0 0.00 0.00 0.00 64 1011.4
20260504032348 61 267 0.0 1.0 0.00 0.00 0.00 64 1011.5
20260504031813 61 267 1.0 1.0 0.00 0.00 0.00 63 1011.6
20260504031316 61 268 0.0 1.0 0.00 0.00 0.00 62 1011.6
20260504030838 62 267 0.0 2.0 0.00 0.00 0.00 61 1011.6
20260504030316 62 267 0.0 2.0 0.00 0.00 0.00 60 1011.6
20260504025324 62 268 0.0 2.0 0.00 0.00 0.00 60 1011.6
20260504024825 62 267 1.0 2.0 0.00 0.00 0.00 60 1011.7
20260504024325 62 279 1.0 2.0 0.00 0.00 0.00 60 1011.6
20260504023825 62 265 1.0 2.0 0.00 0.00 0.00 60 1011.7
20260504023326 62 265 1.0 3.0 0.00 0.00 0.00 61 1011.7
20260504022827 62 260 2.0 3.0 0.00 0.00 0.00 61 1011.6
20260504022330 62 267 2.0 4.0 0.00 0.00 0.00 61 1011.5
20260504021831 62 269 3.0 4.0 0.00 0.00 0.00 61 1011.5
20260504021312 61 267 3.0 4.0 0.00 0.00 0.00 61 1011.4
20260504020814 61 274 2.0 4.0 0.00 0.00 0.00 62 1011.4
20260504020316 61 264 2.0 3.0 0.00 0.00 0.00 63 1011.3
20260504015820 60 269 1.0 3.0 0.00 0.00 0.00 63 1011.2
20260504015321 60 264 2.0 2.0 0.00 0.00 0.00 64 1011.1
20260504014841 60 260 1.0 2.0 0.00 0.00 0.00 65 1011.1
20260504014322 60 264 0.0 1.0 0.00 0.00 0.00 64 1011.0
20260504013825 60 265 0.0 1.0 0.00 0.00 0.00 64 1011.0
20260504013326 60 266 0.0 2.0 0.00 0.00 0.00 63 1011.0
20260504012916 60 266 1.0 2.0 0.00 0.00 0.00 63 1010.9
20260504012312 60 265 1.0 2.0 0.00 0.00 0.00 63 1010.9
20260504011813 60 266 1.0 1.0 0.00 0.00 0.00 63 1010.8
20260504011317 61 266 1.0 1.0 0.00 0.00 0.00 63 1010.8
20260504010821 61 266 0.0 2.0 0.00 0.00 0.00 62 1010.7
20260504010325 61 266 2.0 2.0 0.00 0.00 0.00 62 1010.7
20260504005823 61 254 1.0 3.0 0.00 0.00 0.00 62 1010.6
20260504005326 60 266 2.0 3.0 0.00 0.00 0.00 62 1010.6
20260504004813 60 264 2.0 3.0 0.00 0.00 0.00 63 1010.6
20260504004315 60 261 2.0 2.0 0.00 0.00 0.00 63 1010.5
20260504003816 60 257 1.0 2.0 0.00 0.00 0.00 63 1010.4
20260504003333 60 257 0.0 1.0 0.00 0.00 0.00 61 1010.4
20260504002833 61 320 0.0 1.0 0.00 0.00 0.00 61 1010.4
20260504002353 61 320 0.0 1.0 0.00 0.00 0.00 60 1010.4
20260504001814 61 320 0.0 0.0 0.00 0.00 0.00 60 1010.4
20260504001315 61 320 0.0 1.0 0.00 0.00 0.00 59 1010.4
20260504000838 62 320 0.0 1.0 0.00 0.00 0.00 59 1010.5
20260504000340 62 320 0.0 1.0 0.00 0.00 0.00 57 1010.4
20260503235821 62 320 0.0 2.0 0.00 0.00 0.00 57 1010.4
20260503235323 62 320 1.0 2.0 0.00 0.00 0.00 57 1010.4
20260503234825 63 320 0.0 1.0 0.00 0.00 0.00 57 1010.5
20260503234345 63 320 0.0 1.0 0.00 0.00 0.00 56 1010.4
20260503233842 63 320 0.0 1.0 0.00 0.00 0.00 55 1010.5
20260503233342 64 320 0.0 1.0 0.00 0.00 0.00 55 1010.5
20260503232821 64 320 0.0 1.0 0.00 0.00 0.00 53 1010.6
20260503232323 65 328 0.0 2.0 0.00 0.00 0.00 53 1010.6
20260503231824 65 328 0.0 2.0 0.00 0.00 0.00 53 1010.6
20260503231322 66 266 1.0 2.0 0.00 0.00 0.00 52 1010.6
20260503230824 66 264 0.0 2.0 0.00 0.00 0.00 51 1010.6
20260503230326 67 257 0.0 2.0 0.00 0.00 0.00 50 1010.5
20260503225829 67 269 0.0 1.0 0.00 0.00 0.00 49 1010.4
20260503225331 67 269 0.0 4.0 0.00 0.00 0.00 49 1010.3
20260503224813 67 272 0.0 5.0 0.00 0.00 0.00 49 1010.4
20260503224316 67 255 1.0 4.0 0.00 0.00 0.00 49 1010.3
20260503223819 67 272 1.0 4.0 0.00 0.00 0.00 49 1010.2
20260503223322 67 231 1.0 5.0 0.00 0.00 0.00 49 1010.2
20260503222907 67 245 2.0 5.0 0.00 0.00 0.00 49 1010.1
20260503222325 67 224 3.0 5.0 0.00 0.00 0.00 49 1010.1
20260503221847 67 232 1.0 5.0 0.00 0.00 0.00 49 1010.0
20260503221320 67 210 1.0 5.0 0.00 0.00 0.00 48 1009.9
20260503220843 67 233 1.0 4.0 0.00 0.00 0.00 48 1009.9
20260503220324 67 202 2.0 5.0 0.00 0.00 0.00 47 1009.9
20260503215824 67 202 1.0 5.0 0.00 0.00 0.00 47 1009.9
20260503215324 67 210 2.0 4.0 0.00 0.00 0.00 47 1009.9
20260503214824 67 209 1.0 3.0 0.00 0.00 0.00 46 1009.9
20260503214325 67 195 2.0 3.0 0.00 0.00 0.00 46 1009.9
20260503213824 67 169 2.0 4.0 0.00 0.00 0.00 46 1009.9
20260503213316 67 237 2.0 4.0 0.00 0.00 0.00 45 1009.8
20260503212817 68 219 2.0 5.0 0.00 0.00 0.00 45 1009.8
20260503212326 68 216 1.0 5.0 0.00 0.00 0.00 45 1009.8
20260503211826 68 187 1.0 3.0 0.00 0.00 0.00 45 1009.8
20260503211326 68 145 1.0 4.0 0.00 0.00 0.00 44 1009.8
20260503210847 68 217 1.0 4.0 0.00 0.00 0.00 44 1009.8
20260503210349 68 147 1.0 4.0 0.00 0.00 0.00 44 1009.8
20260503205829 68 186 1.0 4.0 0.00 0.00 0.00 44 1009.8
20260503205324 68 225 1.0 4.0 0.00 0.00 0.00 43 1009.8
20260503204848 69 244 1.0 4.0 0.00 0.00 0.00 43 1009.9
20260503204330 69 209 1.0 5.0 0.00 0.00 0.00 43 1009.9
20260503203813 69 139 1.0 5.0 0.00 0.00 0.00 43 1009.9
20260503203316 69 212 1.0 3.0 0.00 0.00 0.00 43 1009.9
20260503202820 69 209 2.0 4.0 0.00 0.00 0.00 42 1009.9
20260503202322 69 196 1.0 4.0 0.00 0.00 0.00 42 1009.9
20260503201824 69 198 1.0 3.0 0.00 0.00 0.00 42 1009.9
20260503201347 69 153 1.0 3.0 0.00 0.00 0.00 42 1009.9
20260503200828 69 196 1.0 3.0 0.00 0.00 0.00 42 1009.9
20260503200329 70 222 1.0 3.0 0.00 0.00 0.00 42 1009.9
20260503195831 70 168 1.0 5.0 0.00 0.00 0.00 42 1009.9
20260503195314 70 195 1.0 5.0 0.00 0.00 0.00 42 1009.9
20260503194816 70 212 1.0 3.0 0.00 0.00 0.00 41 1010.0
20260503194318 70 205 1.0 3.0 0.00 0.00 0.00 41 1010.1
20260503193841 70 202 1.0 2.0 0.00 0.00 0.00 41 1010.1
20260503193322 71 212 0.0 3.0 0.00 0.00 0.00 40 1010.0
20260503192827 71 198 0.0 2.0 0.00 0.00 0.00 40 1010.0
20260503192331 71 205 1.0 2.0 0.00 0.00 0.00 40 1010.0
20260503191814 71 169 1.0 3.0 0.00 0.00 0.00 40 1010.0
20260503191316 72 139 1.0 3.0 0.00 0.00 0.00 39 1010.1
20260503190838 72 146 1.0 3.0 0.00 0.00 0.00 39 1010.0
20260503190320 72 151 1.0 3.0 0.00 0.00 0.00 38 1010.0
20260503185822 73 161 1.0 2.0 0.00 0.00 0.00 37 1010.0
20260503185324 73 215 1.0 2.0 0.00 0.00 0.00 37 1010.0
20260503184830 74 192 1.0 3.0 0.00 0.00 0.00 36 1010.0
20260503184334 74 217 0.0 3.0 0.00 0.00 0.00 35 1010.0
20260503183857 74 225 0.0 3.0 0.00 0.00 0.00 35 1009.9
20260503183320 75 205 1.0 3.0 0.00 0.00 0.00 35 1009.8
20260503182844 75 191 1.0 3.0 0.00 0.00 0.00 34 1009.8
20260503182322 75 184 1.0 3.0 0.00 0.00 0.00 34 1009.8
20260503181832 76 212 1.0 3.0 0.00 0.00 0.00 33 1009.8
20260503181314 76 210 1.0 3.0 0.00 0.00 0.00 33 1009.8
20260503180838 76 214 1.0 3.0 0.00 0.00 0.00 32 1009.8
20260503180317 77 233 2.0 3.0 0.00 0.00 0.00 32 1009.8
20260503175817 77 205 2.0 5.0 0.00 0.00 0.00 31 1009.7
20260503175317 77 241 2.0 5.0 0.00 0.00 0.00 31 1009.7
20260503174838 78 217 2.0 4.0 0.00 0.00 0.00 31 1009.7
20260503174338 78 222 2.0 4.0 0.00 0.00 0.00 30 1009.7
20260503173820 78 207 1.0 2.0 0.00 0.00 0.00 30 1009.7
20260503173323 79 238 1.0 3.0 0.00 0.00 0.00 30 1009.7
20260503172825 79 211 1.0 4.0 0.00 0.00 0.00 29 1009.7
20260503172327 79 191 1.0 4.0 0.00 0.00 0.00 29 1009.7
20260503171826 80 214 1.0 4.0 0.00 0.00 0.00 29 1009.7
20260503171327 80 182 2.0 7.0 0.00 0.00 0.00 28 1009.7
20260503170840 80 167 2.0 7.0 0.00 0.00 0.00 28 1009.7
20260503170340 81 261 3.0 7.0 0.00 0.00 0.00 28 1009.7
20260503150822 84 217 4.0 8.0 0.00 0.00 0.00 27 1010.1
20260503150327 84 186 4.0 8.0 0.00 0.00 0.00 26 1010.2